Total_Precipitation_Accumulation
1.91 2.04 2.26 2.40 2.44 2.49 2.71 2.96 3.30 3.67 3.77 3.68 3.64 3.55 3.23 2.95 2.62 2.33 2.29 2.37 2.32 2.42 2.68 2.44 2.73 2.87 2.90 3.01 3.05 3.18 3.07 2.91 3.07 2.97 2.48 2.00 1.72 1.56 1.44 1.46 1.55 1.51 1.59
1.90 2.12 2.31 2.38 2.30 2.41 2.68 3.04 3.32 3.65 3.61 3.74 3.90 3.78 3.50 2.94 2.58 2.35 2.26 2.28 2.28 2.30 2.44 2.72 2.77 2.85 2.92 2.93 2.88 2.90 2.73 2.55 2.89 2.94 2.73 2.14 1.78 1.46 1.25 1.42 1.41 1.49 1.71
1.56 1.72 1.84 1.97 2.19 2.53 2.92 3.16 3.37 3.47 3.50 3.64 3.71 3.38 3.14 2.72 2.57 2.52 2.37 2.28 2.36 2.40 2.50 2.67 2.75 2.67 2.60 2.66 2.75 2.66 2.53 2.36 2.50 2.75 2.77 2.31 1.84 1.50 1.28 1.29 1.34 1.63 1.79
1.42 1.51 1.62 1.90 2.23 2.55 2.96 3.34 3.32 3.29 3.24 3.36 3.43 3.21 2.89 2.63 2.52 2.49 2.26 2.11 2.08 2.12 2.22 2.30 2.45 2.50 2.48 2.47 2.42 2.41 2.42 2.37 2.25 2.46 2.53 2.39 2.16 1.91 1.45 1.21 1.24 1.47 1.58
1.30 1.40 1.51 1.74 1.93 2.23 2.54 2.89 3.13 3.15 3.03 3.02 3.03 2.97 2.74 2.47 2.31 2.24 2.11 2.04 2.04 1.93 1.92 2.03 2.20 2.25 2.17 2.17 2.29 2.47 2.44 2.30 2.17 2.26 2.36 2.49 2.42 2.12 1.81 1.40 1.29 1.29 1.22
1.39 1.44 1.64 1.77 1.83 2.01 2.28 2.48 2.66 2.73 2.67 2.60 2.60 2.61 2.50 2.41 2.22 2.07 2.08 2.09 2.00 1.85 1.79 1.80 1.91 1.96 1.95 1.93 1.97 2.09 2.13 2.11 2.20 2.23 2.22 2.33 2.33 2.22 2.10 1.72 1.49 1.36 1.09
1.47 1.52 1.68 1.76 1.82 1.86 1.94 2.01 2.07 2.16 2.10 2.04 2.03 2.06 2.05 2.04 1.93 1.88 1.93 1.97 1.89 1.78 1.73 1.66 1.61 1.60 1.63 1.71 1.88 1.91 1.92 2.00 2.11 2.12 2.15 2.07 2.01 2.09 2.08 1.89 1.64 1.46 1.13
1.33 1.40 1.46 1.38 1.32 1.34 1.41 1.48 1.50 1.53 1.51 1.55 1.63 1.66 1.76 1.76 1.71 1.78 1.78 1.81 1.78 1.72 1.60 1.46 1.40 1.37 1.39 1.48 1.67 1.85 1.85 1.94 1.99 1.93 1.98 1.88 1.80 1.92 1.90 1.86 1.88 1.71 1.53
1.01 0.99 0.98 1.01 1.06 1.08 1.10 1.11 1.15 1.17 1.12 1.14 1.26 1.34 1.41 1.45 1.47 1.55 1.56 1.51 1.49 1.41 1.38 1.34 1.32 1.26 1.28 1.33 1.37 1.51 1.53 1.61 1.67 1.74 1.72 1.62 1.63 1.72 1.76 1.85 1.94 1.88 1.74
0.86 0.83 0.77 0.77 0.79 0.80 0.89 0.96 1.03 1.12 1.09 1.02 1.02 1.02 1.10 1.13 1.25 1.30 1.29 1.32 1.35 1.31 1.24 1.24 1.23 1.17 1.14 1.16 1.20 1.25 1.30 1.29 1.33 1.51 1.53 1.51 1.52 1.63 1.66 1.73 1.86 1.96 1.97
0.61 0.62 0.54 0.53 0.58 0.67 0.76 0.81 0.93 1.02 0.98 0.87 0.86 0.89 0.90 0.94 1.01 1.08 1.07 1.12 1.18 1.25 1.24 1.20 1.16 1.05 0.98 0.97 1.00 1.02 1.12 1.14 1.13 1.20 1.22 1.29 1.39 1.53 1.58 1.62 1.69 1.89 2.06
0.44 0.53 0.50 0.42 0.45 0.50 0.54 0.61 0.71 0.82 0.85 0.82 0.83 0.88 0.90 0.89 0.89 0.92 0.90 0.92 0.98 0.99 0.99 0.98 1.04 1.06 1.04 1.01 1.00 0.97 0.96 1.02 1.04 1.10 1.19 1.25 1.37 1.49 1.47 1.54 1.62 1.81 2.04
0.47 0.46 0.48 0.38 0.35 0.38 0.43 0.49 0.54 0.62 0.72 0.75 0.81 0.88 0.87 0.85 0.87 0.92 0.91 0.88 0.88 0.90 0.88 0.88 0.91 0.93 1.01 1.12 1.14 1.11 1.11 1.13 1.05 1.11 1.19 1.18 1.22 1.30 1.34 1.45 1.57 1.72 1.87
0.45 0.40 0.38 0.33 0.27 0.29 0.33 0.37 0.39 0.45 0.53 0.63 0.79 0.95 1.01 1.00 1.01 0.98 0.98 0.95 0.90 0.91 0.90 0.84 0.84 0.87 0.87 0.95 1.08 1.14 1.13 1.10 1.05 1.05 1.04 1.00 1.02 1.11 1.20 1.26 1.42 1.57 1.71
0.35 0.32 0.29 0.23 0.22 0.22 0.25 0.31 0.38 0.42 0.48 0.63 0.86 1.00 1.00 0.95 0.94 0.91 0.97 0.96 0.88 0.83 0.88 0.80 0.76 0.82 0.86 0.83 0.85 0.95 0.99 0.99 0.97 0.99 0.92 0.80 0.80 0.83 0.87 0.94 1.18 1.35 1.50
0.32 0.27 0.24 0.20 0.17 0.16 0.18 0.23 0.33 0.39 0.50 0.64 0.73 0.77 0.84 0.88 0.84 0.78 0.75 0.78 0.81 0.80 0.79 0.73 0.72 0.72 0.64 0.66 0.62 0.63 0.73 0.79 0.81 0.86 0.88 0.78 0.67 0.62 0.64 0.66 0.79 0.97 1.14
0.31 0.28 0.22 0.20 0.16 0.14 0.18 0.22 0.29 0.35 0.47 0.59 0.61 0.68 0.82 0.85 0.78 0.66 0.69 0.76 0.79 0.79 0.76 0.69 0.66 0.65 0.63 0.51 0.45 0.45 0.55 0.64 0.67 0.72 0.78 0.68 0.60 0.58 0.55 0.59 0.66 0.71 0.78
0.18 0.17 0.16 0.19 0.17 0.17 0.21 0.24 0.28 0.34 0.47 0.60 0.65 0.69 0.83 0.84 0.79 0.75 0.74 0.75 0.76 0.77 0.77 0.70 0.66 0.71 0.65 0.51 0.43 0.38 0.37 0.49 0.60 0.63 0.68 0.70 0.71 0.63 0.61 0.61 0.66 0.64 0.64
0.14 0.14 0.13 0.17 0.25 0.28 0.29 0.33 0.38 0.39 0.47 0.59 0.69 0.78 0.89 0.90 0.86 0.82 0.79 0.79 0.77 0.72 0.72 0.72 0.72 0.75 0.72 0.53 0.40 0.37 0.43 0.55 0.60 0.63 0.64 0.67 0.72 0.65 0.54 0.55 0.61 0.65 0.67
0.18 0.18 0.18 0.22 0.28 0.33 0.32 0.36 0.41 0.48 0.58 0.69 0.77 0.84 0.91 0.98 0.96 0.93 0.91 0.86 0.84 0.77 0.70 0.71 0.74 0.74 0.79 0.59 0.37 0.34 0.46 0.63 0.69 0.78 0.78 0.63 0.57 0.56 0.43 0.47 0.59 0.60 0.62
0.21 0.24 0.28 0.37 0.39 0.38 0.42 0.48 0.50 0.55 0.61 0.71 0.82 0.95 1.04 1.02 1.01 1.03 1.02 0.98 0.93 0.92 0.84 0.76 0.75 0.76 0.72 0.58 0.38 0.34 0.45 0.65 0.78 0.80 0.82 0.74 0.53 0.45 0.41 0.39 0.48 0.54 0.52
0.23 0.35 0.45 0.50 0.49 0.54 0.64 0.70 0.71 0.68 0.69 0.79 0.88 1.03 1.15 1.00 0.94 1.10 1.13 1.10 1.10 1.09 1.04 0.97 0.86 0.83 0.82 0.62 0.46 0.39 0.42 0.55 0.74 0.87 0.86 0.73 0.54 0.45 0.41 0.36 0.37 0.37 0.35
0.25 0.38 0.49 0.53 0.53 0.61 0.75 0.89 0.89 0.84 0.82 0.90 1.00 1.03 1.06 1.12 1.15 1.17 1.18 1.18 1.16 1.17 1.13 1.11 1.04 0.99 1.01 0.91 0.61 0.50 0.46 0.51 0.64 0.75 0.80 0.72 0.51 0.43 0.44 0.43 0.37 0.33 0.33
0.28 0.34 0.46 0.51 0.60 0.68 0.80 0.94 0.98 0.98 0.99 1.03 1.08 1.12 1.14 1.16 1.23 1.33 1.30 1.26 1.20 1.22 1.24 1.20 1.19 1.16 1.15 1.07 0.87 0.72 0.63 0.61 0.61 0.65 0.67 0.68 0.61 0.50 0.52 0.54 0.45 0.39 0.44
0.34 0.38 0.51 0.60 0.66 0.72 0.81 0.90 0.97 1.06 1.15 1.18 1.20 1.22 1.23 1.27 1.32 1.34 1.31 1.24 1.20 1.12 1.18 1.20 1.19 1.17 1.15 1.03 0.92 0.88 0.85 0.80 0.74 0.71 0.79 0.80 0.85 0.77 0.73 0.75 0.70 0.64 0.67
0.51 0.48 0.52 0.63 0.69 0.77 0.86 0.96 1.10 1.22 1.36 1.37 1.29 1.28 1.26 1.32 1.36 1.35 1.19 0.98 0.91 0.85 0.82 0.86 0.88 0.85 0.82 0.77 0.73 0.74 0.73 0.71 0.71 0.69 0.82 0.93 0.96 0.94 0.95 0.94 0.92 0.90 0.85